Location: Madrid
(40.4000°N, 3.6830°W)
Time: 20:48:39
(UTC+01:00)

ISS - Pass Details

Date: 01 March 2021
Orbit: 417 x 422 km, 51.6° (Epoch: 26 February)

Event Time Altitude Azimuth Distance (km) Brightness Sun altitude
Exits shadow 06:26:49 12° 335° (NNW) 1,376 -1.4 -16.3°
Maximum altitude 06:27:43 13° 352° (N) 1,324 -1.3 -16.1°
Drops below altitude 10° 06:29:23 10° 22° (NNE) 1,499 -0.6 -15.8°
Sets 06:32:24 0° 52° (NE) 2,364 1.0 -15.2°
